1969,5,8,13,591
1969,5,8,14,621
1969,5,8,15,664
1969,5,8,16,707
1969,5,8,17,813
1969,5,8,18,1011
1969,5,8,19,993
1969,5,8,20,1005
1969,5,8,21,1005
1969,5,8,22,1024
1969,5,8,23,963
1969,5,9,0,893
1969,5,9,1,810
1969,5,9,2,743
1969,5,9,3,640
1969,5,9,4,560
1969,5,9,5,521
1969,5,9,6,524
1969,5,9,7,530
1969,5,9,8,487
1969,5,9,9,539
1969,5,9,10,573
1969,5,9,11,621
1969,5,9,12,633
1969,5,9,13,661
1969,5,9,14,719
1969,5,9,15,722
1969,5,9,16,697
1969,5,9,17,728
1969,5,9,18,844
1969,5,9,19,902
1969,5,9,20,835
1969,5,9,21,886
1969,5,9,22,950
1969,5,9,23,950
1969,5,10,0,966
1969,5,10,1,935
1969,5,10,2,835
1969,5,10,3,758
1969,5,10,4,640
1969,5,10,5,548
1969,5,10,6,487
1969,5,10,7,463
1969,5,10,8,475
1969,5,10,9,493
1969,5,10,10,569
1969,5,10,11,655
1969,5,10,12,743
1969,5,10,13,801
1969,5,10,14,822
1969,5,10,15,786
1969,5,10,16,740
1969,5,10,17,691
1969,5,10,18,646
1969,5,10,19,719
1969,5,10,20,743
1969,5,10,21,722
1969,5,10,22,780
1969,5,10,23,886
1969,5,11,0,941
1969,5,11,1,932
1969,5,11,2,874
1969,5,11,3,804
1969,5,11,4,673
1969,5,11,5,554
1969,5,11,6,460
1969,5,11,7,414
1969,5,11,8,435
1969,5,11,9,463
1969,5,11,10,530
1969,5,11,11,682
1969,5,11,12,816
1969,5,11,13,914
1969,5,11,14,957
1969,5,11,15,917
1969,5,11,16,862
1969,5,11,17,743
1969,5,11,18,658
1969,5,11,19,603
1969,5,11,20,661
1969,5,11,21,652
1969,5,11,22,697
1969,5,11,23,774
1969,5,12,0,896
1969,5,12,1,950
1969,5,12,2,944
1969,5,12,3,908
1969,5,12,4,813
1969,5,12,5,646
1969,5,12,6,487
1969,5,12,7,411
1969,5,12,8,420
1969,5,12,9,454
1969,5,12,10,569
1969,5,12,11,694
1969,5,12,12,883
1969,5,12,13,1027
1969,5,12,14,1109
1969,5,12,15,1091
1969,5,12,16,996
1969,5,12,17,877
1969,5,12,18,685
1969,5,12,19,563
1969,5,12,20,536
1969,5,12,21,597
1969,5,12,22,603
1969,5,12,23,649
1969,5,13,0,755
1969,5,13,1,920
1969,5,13,2,960
1969,5,13,3,917
1969,5,13,4,847
1969,5,13,5,719
1969,5,13,6,530
1969,5,13,7,374
1969,5,13,8,316
1969,5,13,9,362
1969,5,13,10,472
1969,5,13,11,624
1969,5,13,12,829
1969,5,13,13,1014
1969,5,13,14,1170
1969,5,13,15,1240
1969,5,13,16,1179
1969,5,13,17,1039
1969,5,13,18,841
1969,5,13,19,615
1969,5,13,20,475
1969,5,13,21,466
1969,5,13,22,466
1969,5,13,23,539
1969,5,14,0,673
1969,5,14,1,826
1969,5,14,2,941
1969,5,14,3,987
1969,5,14,4,917
1969,5,14,5,786
1969,5,14,6,612
1969,5,14,7,457
1969,5,14,8,353
1969,5,14,9,332
1969,5,14,10,405
1969,5,14,11,563
1969,5,14,12,777
1969,5,14,13,996
1969,5,14,14,1182
1969,5,14,15,1298
1969,5,14,16,1283
1969,5,14,17,1155
1969,5,14,18,935
1969,5,14,19,716
1969,5,14,20,475
1969,5,14,21,368
1969,5,14,22,387
1969,5,14,23,408
1969,5,15,0,530
1969,5,15,1,701
1969,5,15,2,847
1969,5,15,3,950
1969,5,15,4,935
1969,5,15,5,844
1969,5,15,6,679
1969,5,15,7,493
1969,5,15,8,313
1969,5,15,9,262
1969,5,15,10,335
1969,5,15,11,484
1969,5,15,12,676
1969,5,15,13,917
1969,5,15,14,1155
1969,5,15,15,1301
1969,5,15,16,1347
1969,5,15,17,1258
1969,5,15,18,1066
1969,5,15,19,822
1969,5,15,20,563
1969,5,15,21,356
1969,5,15,22,268
1969,5,15,23,301
1969,5,16,0,368
1969,5,16,1,505
1969,5,16,2,688
1969,5,16,3,838
1969,5,16,4,886
1969,5,16,5,826
1969,5,16,6,688
1969,5,16,7,502
1969,5,16,8,323
1969,5,16,9,210
1969,5,16,10,219
1969,5,16,11,347
1969,5,16,12,551
1969,5,16,13,789
1969,5,16,14,1057
1969,5,16,15,1243
1969,5,16,16,1331
1969,5,16,17,1310
1969,5,16,18,1143
1969,5,16,19,890
1969,5,16,20,630
1969,5,16,21,411
1969,5,16,22,228
1969,5,16,23,198
1969,5,17,0,280
1969,5,17,1,423
1969,5,17,2,597
1969,5,17,3,795
1969,5,17,4,871
1969,5,17,5,868
1969,5,17,6,765
1969,5,17,7,597
1969,5,17,8,408
1969,5,17,9,283
1969,5,17,10,228
1969,5,17,11,307
1969,5,17,12,493
1969,5,17,13,728
1969,5,17,14,987
1969,5,17,15,1194
1969,5,17,16,1368
1969,5,17,17,1414
1969,5,17,18,1267
1969,5,17,19,1033
1969,5,17,20,780
1969,5,17,21,524
1969,5,17,22,295
1969,5,17,23,216
1969,5,18,0,237
1969,5,18,1,341
1969,5,18,2,496
1969,5,18,3,722
1969,5,18,4,789
1969,5,18,5,819
1969,5,18,6,789
1969,5,18,7,661
1969,5,18,8,469
1969,5,18,9,329
1969,5,18,10,237
1969,5,18,11,274
1969,5,18,12,408
1969,5,18,13,612
1969,5,18,14,865
1969,5,18,15,1072
1969,5,18,16,1289
1969,5,18,17,1383
1969,5,18,18,1304
1969,5,18,19,1149
1969,5,18,20,923
1969,5,18,21,649
1969,5,18,22,423
1969,5,18,23,259
1969,5,19,0,210
1969,5,19,1,271
1969,5,19,2,417
1969,5,19,3,576
1969,5,19,4,755
1969,5,19,5,841
1969,5,19,6,780
1969,5,19,7,676
1969,5,19,8,542
1969,5,19,9,411
1969,5,19,10,298
1969,5,19,11,252
1969,5,19,12,329
1969,5,19,13,512
1969,5,19,14,746
1969,5,19,15,990
1969,5,19,16,1237
1969,5,19,17,1353
1969,5,19,18,1331
1969,5,19,19,1225
1969,5,19,20,1014
1969,5,19,21,792
1969,5,19,22,548
1969,5,19,23,374
1969,5,20,0,271
1969,5,20,1,277
1969,5,20,2,368
1969,5,20,3,512
1969,5,20,4,655
1969,5,20,5,850
1969,5,20,6,795
1969,5,20,7,719
1969,5,20,8,609
1969,5,20,9,509
1969,5,20,10,377
1969,5,20,11,320
1969,5,20,12,338
1969,5,20,13,438
1969,5,20,14,624
1969,5,20,15,874
1969,5,20,16,1182
1969,5,20,17,1258
1969,5,20,18,1252
1969,5,20,19,1252
1969,5,20,20,1127
1969,5,20,21,911
1969,5,20,22,694
1969,5,20,23,515
1969,5,21,0,371
1969,5,21,1,323
1969,5,21,2,374
1969,5,21,3,457
1969,5,21,4,569
1969,5,21,5,731
1969,5,21,6,710
1969,5,21,7,697
1969,5,21,8,633
1969,5,21,9,515
1969,5,21,10,387
1969,5,21,11,341
1969,5,21,12,335
1969,5,21,13,393
1969,5,21,14,509
1969,5,21,15,722
1969,5,21,16,960
1969,5,21,17,1213
1969,5,21,18,1194
1969,5,21,19,1164
1969,5,21,20,1078
1969,5,21,21,938
1969,5,21,22,771
1969,5,21,23,588
1969,5,22,0,441
1969,5,22,1,368
1969,5,22,2,356
1969,5,22,3,417
1969,5,22,4,509
1969,5,22,5,658
1969,5,22,6,737
1969,5,22,7,707
1969,5,22,8,646
1969,5,22,9,566
1969,5,22,10,505
1969,5,22,11,448
1969,5,22,12,408
1969,5,22,13,441
1969,5,22,14,505
1969,5,22,15,655
1969,5,22,16,896
1969,5,22,17,1060
1969,5,22,18,1066
1969,5,22,19,1078
1969,5,22,20,1063
1969,5,22,21,960
1969,5,22,22,844
1969,5,22,23,713
1969,5,23,0,588
1969,5,23,1,481
1969,5,23,2,432
1969,5,23,3,441
1969,5,23,4,454
1969,5,23,5,566
1969,5,23,6,679
1969,5,23,7,682
1969,5,23,8,637
1969,5,23,9,591
1969,5,23,10,569
1969,5,23,11,530
1969,5,23,12,518
1969,5,23,13,499
1969,5,23,14,557
1969,5,23,15,621
1969,5,23,16,755
1969,5,23,17,1024
1969,5,23,18,1008
1969,5,23,19,1008
1969,5,23,20,1014
1969,5,23,21,1002
1969,5,23,22,911
1969,5,23,23,810
1969,5,24,0,685
1969,5,24,1,621
1969,5,24,2,533
1969,5,24,3,496
1969,5,24,4,487
1969,5,24,5,472
1969,5,24,6,554
1969,5,24,7,627
1969,5,24,8,655
1969,5,24,9,612
1969,5,24,10,630
1969,5,24,11,646
1969,5,24,12,637
1969,5,24,13,618
1969,5,24,14,615
1969,5,24,15,630
1969,5,24,16,670
1969,5,24,17,740
1969,5,24,18,957
1969,5,24,19,993
1969,5,24,20,929
1969,5,24,21,896
1969,5,24,22,911
1969,5,24,23,838
1969,5,25,0,783
1969,5,25,1,713
1969,5,25,2,646
1969,5,25,3,566
1969,5,25,4,502
1969,5,25,5,441
1969,5,25,6,487
1969,5,25,7,545
1969,5,25,8,609
1969,5,25,9,649
1969,5,25,10,679
1969,5,25,11,713
1969,5,25,12,746
1969,5,25,13,743
1969,5,25,14,722
1969,5,25,15,707
1969,5,25,16,682
1969,5,25,17,667
1969,5,25,18,728
1969,5,25,19,880
1969,5,25,20,841
1969,5,25,21,868
1969,5,25,22,856
1969,5,25,23,877
1969,5,26,0,868
1969,5,26,1,826
1969,5,26,2,762
1969,5,26,3,688
1969,5,26,4,569
1969,5,26,5,518
1969,5,26,6,481
1969,5,26,7,475
1969,5,26,8,505
1969,5,26,9,597
1969,5,26,10,688
1969,5,26,11,765
1969,5,26,12,853
1969,5,26,13,886
1969,5,26,14,871
1969,5,26,15,816
1969,5,26,16,762
1969,5,26,17,673
1969,5,26,18,630
1969,5,26,19,707
1969,5,26,20,701
1969,5,26,21,670
1969,5,26,22,719
1969,5,26,23,795
1969,5,27,0,816
1969,5,27,1,816
1969,5,27,2,792
1969,5,27,3,713
1969,5,27,4,597
1969,5,27,5,496
1969,5,27,6,417
1969,5,27,7,408
1969,5,27,8,445
1969,5,27,9,509
1969,5,27,10,652
1969,5,27,11,826
1969,5,27,12,957
1969,5,27,13,1033
1969,5,27,14,1045
1969,5,27,15,990
1969,5,27,16,880
1969,5,27,17,713
1969,5,27,18,576
1969,5,27,19,515
1969,5,27,20,512
1969,5,27,21,551
1969,5,27,22,612
1969,5,27,23,682
1969,5,28,0,780
1969,5,28,1,874
1969,5,28,2,883
1969,5,28,3,822
1969,5,28,4,713
1969,5,28,5,545
1969,5,28,6,423
1969,5,28,7,387
1969,5,28,8,381
1969,5,28,9,466
1969,5,28,10,588
1969,5,28,11,771
1969,5,28,12,972
1969,5,28,13,1127
1969,5,28,14,1182
1969,5,28,15,1176
1969,5,28,16,1066
1969,5,28,17,886
1969,5,28,18,691
1969,5,28,19,539
1969,5,28,20,445
1969,5,28,21,445
1969,5,28,22,466
1969,5,28,23,545
1969,5,29,0,670
1969,5,29,1,792
1969,5,29,2,862
1969,5,29,3,871
1969,5,29,4,795
1969,5,29,5,670
1969,5,29,6,512
1969,5,29,7,390
1969,5,29,8,359
1969,5,29,9,390
1969,5,29,10,502
1969,5,29,11,704
1969,5,29,12,923
1969,5,29,13,1139
1969,5,29,14,1289
1969,5,29,15,1328
1969,5,29,16,1246
1969,5,29,17,1063
1969,5,29,18,838
1969,5,29,19,585
1969,5,29,20,393
1969,5,29,21,292
1969,5,29,22,307
1969,5,29,23,396
1969,5,30,0,527
1969,5,30,1,670
1969,5,30,2,786
1969,5,30,3,841
1969,5,30,4,844
1969,5,30,5,734
1969,5,30,6,579
1969,5,30,7,408
1969,5,30,8,338
1969,5,30,9,295
1969,5,30,10,384
1969,5,30,11,545
1969,5,30,12,810
1969,5,30,13,1060
1969,5,30,14,1283
1969,5,30,15,1402
1969,5,30,16,1386
1969,5,30,17,1280
1969,5,30,18,1069
1969,5,30,19,807
1969,5,30,20,560
1969,5,30,21,381
1969,5,30,22,243
1969,5,30,23,274
1969,5,31,0,347
1969,5,31,1,505
1969,5,31,2,658
1969,5,31,3,780
1969,5,31,4,822
1969,5,31,5,792
1969,5,31,6,673
1969,5,31,7,505
1969,5,31,8,371
1969,5,31,9,323
1969,5,31,10,332
1969,5,31,11,481
1969,5,31,12,664
1969,5,31,13,908
1969,5,31,14,1167
1969,5,31,15,1368
1969,5,31,16,1444
1969,5,31,17,1399
1969,5,31,18,1246
1969,5,31,19,1002
1969,5,31,20,682
1969,5,31,21,423
1969,5,31,22,249
1969,5,31,23,161
1969,6,1,0,222
1969,6,1,1,307
1969,6,1,2,445
1969,6,1,3,609
1969,6,1,4,722
1969,6,1,5,755
1969,6,1,6,713
1969,6,1,7,566
1969,6,1,8,426
1969,6,1,9,332
1969,6,1,10,304
1969,6,1,11,387
1969,6,1,12,554
1969,6,1,13,740
1969,6,1,14,972
1969,6,1,15,1219
1969,6,1,16,1392
1969,6,1,17,1450
1969,6,1,18,1374
1969,6,1,19,1191
1969,6,1,20,893
1969,6,1,21,615
1969,6,1,22,387
1969,6,1,23,259
1969,6,2,0,219
1969,6,2,1,265
1969,6,2,2,368
1969,6,2,3,499
1969,6,2,4,609
1969,6,2,5,707
1969,6,2,6,728
1969,6,2,7,643
1969,6,2,8,527
1969,6,2,9,411
1969,6,2,10,344
1969,6,2,11,335
1969,6,2,12,451
1969,6,2,13,597
1969,6,2,14,780
1969,6,2,15,990
1969,6,2,16,1228
1969,6,2,17,1368
1969,6,2,18,1377
1969,6,2,19,1286
1969,6,2,20,1088
1969,6,2,21,841
1969,6,2,22,573
1969,6,2,23,371
1969,6,3,0,274
1969,6,3,1,292
1969,6,3,2,335
1969,6,3,3,347
1969,6,3,4,469
1969,6,3,5,588
1969,6,3,6,655
1969,6,3,7,633
1969,6,3,8,566
1969,6,3,9,472
1969,6,3,10,414
1969,6,3,11,371
1969,6,3,12,426
1969,6,3,13,603
1969,6,3,14,722
1969,6,3,15,822
1969,6,3,16,1011
1969,6,3,17,1194
1969,6,3,18,1301
1969,6,3,19,1292
1969,6,3,20,1170
1969,6,3,21,1008
1969,6,3,22,786
1969,6,3,23,569
1969,6,4,0,390
1969,6,4,1,341
1969,6,4,2,432
1969,6,4,3,368
1969,6,4,4,396
1969,6,4,5,481
1969,6,4,6,585
1969,6,4,7,643
1969,6,4,8,618
1969,6,4,9,548
1969,6,4,10,505
1969,6,4,11,466
1969,6,4,12,460
1969,6,4,13,554
1969,6,4,14,728
1969,6,4,15,688
1969,6,4,16,841
1969,6,4,17,1014
1969,6,4,18,1164
1969,6,4,19,1213
1969,6,4,20,1161
1969,6,4,21,1072
1969,6,4,22,911
1969,6,4,23,755
1969,6,5,0,582
1969,6,5,1,469
1969,6,5,2,432
1969,6,5,3,484
1969,6,5,4,387
1969,6,5,5,414
1969,6,5,6,509
1969,6,5,7,615
1969,6,5,8,646
1969,6,5,9,615
1969,6,5,10,606
1969,6,5,11,554
1969,6,5,12,560
1969,6,5,13,560
1969,6,5,14,755
1969,6,5,15,664
1969,6,5,16,704
1969,6,5,17,819
1969,6,5,18,944
1969,6,5,19,1103
1969,6,5,20,1103
1969,6,5,21,1030
1969,6,5,22,963
1969,6,5,23,865
1969,6,6,0,719
1969,6,6,1,600
1969,6,6,2,512
1969,6,6,3,524
1969,6,6,4,490
1969,6,6,5,402
1969,6,6,6,445
1969,6,6,7,545
1969,6,6,8,633
1969,6,6,9,646
1969,6,6,10,652
1969,6,6,11,661
1969,6,6,12,640
1969,6,6,13,633
1969,6,6,14,630
1969,6,6,15,877
1969,6,6,16,707
1969,6,6,17,722
1969,6,6,18,813
1969,6,6,19,950
1969,6,6,20,978
1969,6,6,21,984
1969,6,6,22,935
1969,6,6,23,865
1969,6,7,0,783
1969,6,7,1,713
1969,6,7,2,637
1969,6,7,3,579
1969,6,7,4,615
1969,6,7,5,435
1969,6,7,6,438
1969,6,7,7,515
1969,6,7,8,594
1969,6,7,9,646
1969,6,7,10,685
1969,6,7,11,716
1969,6,7,12,749
1969,6,7,13,762
1969,6,7,14,743
1969,6,7,15,768
1969,6,7,16,868
1969,6,7,17,664
1969,6,7,18,688
1969,6,7,19,768
1969,6,7,20,838
1969,6,7,21,877
1969,6,7,22,880
1969,6,7,23,847
1969,6,8,0,789
1969,6,8,1,774
1969,6,8,2,679
1969,6,8,3,600
1969,6,8,4,600
1969,6,8,5,569
1969,6,8,6,441
1969,6,8,7,463
1969,6,8,8,557
1969,6,8,9,658
1969,6,8,10,710
1969,6,8,11,795
1969,6,8,12,841
1969,6,8,13,844
1969,6,8,14,838
1969,6,8,15,783
1969,6,8,16,777
1969,6,8,17,905
1969,6,8,18,637
1969,6,8,19,627
1969,6,8,20,679
1969,6,8,21,731
1969,6,8,22,746
1969,6,8,23,771
1969,6,9,0,743
1969,6,9,1,719
1969,6,9,2,697
1969,6,9,3,618
1969,6,9,4,573
1969,6,9,5,560
1969,6,9,6,551
1969,6,9,7,460
1969,6,9,8,509
1969,6,9,9,624
1969,6,9,10,749
1969,6,9,11,832
1969,6,9,12,886
1969,6,9,13,963
1969,6,9,14,972
1969,6,9,15,908
1969,6,9,16,816
1969,6,9,17,798
1969,6,9,18,874
1969,6,9,19,576
1969,6,9,20,573
1969,6,9,21,606
1969,6,9,22,624
1969,6,9,23,664
1969,6,10,0,728
1969,6,10,1,719
1969,6,10,2,722
1969,6,10,3,658
1969,6,10,4,585
1969,6,10,5,566
1969,6,10,6,591
1969,6,10,7,475
1969,6,10,8,469
1969,6,10,9,548
1969,6,10,10,670
1969,6,10,11,795
1969,6,10,12,917
1969,6,10,13,999
1969,6,10,14,1033
1969,6,10,15,996
1969,6,10,16,923
1969,6,10,17,822
1969,6,10,18,783
1969,6,10,19,691
1969,6,10,20,472
1969,6,10,21,454
1969,6,10,22,478
1969,6,10,23,518
1969,6,11,0,606
1969,6,11,1,646
1969,6,11,2,664
1969,6,11,3,676
1969,6,11,4,618
1969,6,11,5,545
1969,6,11,6,490
1969,6,11,7,542
1969,6,11,8,490
1969,6,11,9,499
1969,6,11,10,606
1969,6,11,11,755
1969,6,11,12,908
1969,6,11,13,1021
1969,6,11,14,1097
1969,6,11,15,1100
1969,6,11,16,1048
1969,6,11,17,932
1969,6,11,18,795
1969,6,11,19,670
1969,6,11,20,618
1969,6,11,21,402
1969,6,11,22,381
1969,6,11,23,411
1969,6,12,0,518
1969,6,12,1,594
1969,6,12,2,670
1969,6,12,3,679
1969,6,12,4,661
1969,6,12,5,597
1969,6,12,6,499
1969,6,12,7,472
1969,6,12,8,441
1969,6,12,9,429
1969,6,12,10,493
1969,6,12,11,633
1969,6,12,12,826
1969,6,12,13,978
1969,6,12,14,1121
1969,6,12,15,1179
1969,6,12,16,1146
1969,6,12,17,1048
1969,6,12,18,865
1969,6,12,19,673
1969,6,12,20,521
1969,6,12,21,426
1969,6,12,22,313
1969,6,12,23,304
1969,6,13,0,374
1969,6,13,1,478
1969,6,13,2,588
1969,6,13,3,682
1969,6,13,4,691
1969,6,13,5,640
1969,6,13,6,533
1969,6,13,7,441
1969,6,13,8,396
1969,6,13,9,414
1969,6,13,10,478
1969,6,13,11,588
1969,6,13,12,746
1969,6,13,13,941
1969,6,13,14,1103
1969,6,13,15,1197
1969,6,13,16,1219
1969,6,13,17,1149
1969,6,13,18,978
1969,6,13,19,758
1969,6,13,20,557
1969,6,13,21,426
1969,6,13,22,368
1969,6,13,23,274
1969,6,14,0,329
1969,6,14,1,441
1969,6,14,2,566
1969,6,14,3,673
1969,6,14,4,713
1969,6,14,5,707
1969,6,14,6,615
1969,6,14,7,496
1969,6,14,8,405
1969,6,14,9,368
1969,6,14,10,417
1969,6,14,11,512
1969,6,14,12,676
1969,6,14,13,874
1969,6,14,14,1075
1969,6,14,15,1210
1969,6,14,16,1261
1969,6,14,17,1216
1969,6,14,18,1078
1969,6,14,19,883
1969,6,14,20,640
1969,6,14,21,463
1969,6,14,22,329
1969,6,14,23,274
1969,6,15,0,298
1969,6,15,1,384
1969,6,15,2,499
1969,6,15,3,630
1969,6,15,4,713
1969,6,15,5,704
1969,6,15,6,664
1969,6,15,7,539
1969,6,15,8,438
1969,6,15,9,341
1969,6,15,10,359
1969,6,15,11,448
1969,6,15,12,600
1969,6,15,13,777
1969,6,15,14,999
1969,6,15,15,1176
1969,6,15,16,1264
1969,6,15,17,1277
1969,6,15,18,1182
1969,6,15,19,1021
1969,6,15,20,768
1969,6,15,21,545
1969,6,15,22,341
1969,6,15,23,271
1969,6,16,0,286
1969,6,16,1,344
1969,6,16,2,448
1969,6,16,3,582
1969,6,16,4,682
1969,6,16,5,713
1969,6,16,6,688
1969,6,16,7,630
1969,6,16,8,481
1969,6,16,9,384
1969,6,16,10,323
1969,6,16,11,381
1969,6,16,12,524
1969,6,16,13,649
1969,6,16,14,850
1969,6,16,15,1057
1969,6,16,16,1207
1969,6,16,17,1252
1969,6,16,18,1222
1969,6,16,19,1082
1969,6,16,20,877
1969,6,16,21,652
1969,6,16,22,438
1969,6,16,23,268
1969,6,17,0,256
1969,6,17,1,295
1969,6,17,2,402
1969,6,17,3,509
1969,6,17,4,615
1969,6,17,5,667
1969,6,17,6,676
1969,6,17,7,649
1969,6,17,8,548
1969,6,17,9,426
1969,6,17,10,329
1969,6,17,11,356
1969,6,17,12,420
1969,6,17,13,609
1969,6,17,14,777
1969,6,17,15,960
1969,6,17,16,1136
1969,6,17,17,1231
1969,6,17,18,1228
1969,6,17,19,1152
1969,6,17,20,990
1969,6,17,21,789
1969,6,17,22,573
1969,6,17,23,374
1969,6,18,0,307
1969,6,18,1,323
1969,6,18,2,426
1969,6,18,3,509
1969,6,18,4,615
1969,6,18,5,691
1969,6,18,6,731
1969,6,18,7,676
1969,6,18,8,624
1969,6,18,9,536
1969,6,18,10,417
1969,6,18,11,377
1969,6,18,12,390
1969,6,18,13,521
1969,6,18,14,755
1969,6,18,15,905
1969,6,18,16,1060
1969,6,18,17,1179
1969,6,18,18,1231
1969,6,18,19,1200
1969,6,18,20,1054
1969,6,18,21,874
1969,6,18,22,655
1969,6,18,23,496
1969,6,19,0,356
1969,6,19,1,313
1969,6,19,2,399
1969,6,19,3,490
1969,6,19,4,579
1969,6,19,5,667
1969,6,19,6,713
1969,6,19,7,701
1969,6,19,8,661
1969,6,19,9,579
1969,6,19,10,481
1969,6,19,11,402
1969,6,19,12,384
1969,6,19,13,460
1969,6,19,14,661
1969,6,19,15,762
1969,6,19,16,905
1969,6,19,17,1060
1969,6,19,18,1133
1969,6,19,19,1146
1969,6,19,20,1063
1969,6,19,21,944
1969,6,19,22,789
1969,6,19,23,594
1969,6,20,0,390
1969,6,20,1,350
1969,6,20,2,368
1969,6,20,3,478
1969,6,20,4,512
1969,6,20,5,594
1969,6,20,6,673
1969,6,20,7,694
1969,6,20,8,694
1969,6,20,9,627
1969,6,20,10,554
1969,6,20,11,499
1969,6,20,12,457
1969,6,20,13,466
1969,6,20,14,579
1969,6,20,15,685
1969,6,20,16,792
1969,6,20,17,899
1969,6,20,18,1005
1969,6,20,19,1082
1969,6,20,20,1066
1969,6,20,21,975
1969,6,20,22,838
1969,6,20,23,670
1969,6,21,0,518
1969,6,21,1,411
1969,6,21,2,381
1969,6,21,3,405
1969,6,21,4,487
1969,6,21,5,563
1969,6,21,6,640
1969,6,21,7,701
1969,6,21,8,716
1969,6,21,9,679
1969,6,21,10,609
1969,6,21,11,548
1969,6,21,12,515
1969,6,21,13,502
1969,6,21,14,548
1969,6,21,15,624
1969,6,21,16,707
1969,6,21,17,792
1969,6,21,18,883
1969,6,21,19,975
1969,6,21,20,1005
1969,6,21,21,975
1969,6,21,22,868
1969,6,21,23,762
1969,6,22,0,618
1969,6,22,1,512
1969,6,22,2,426
1969,6,22,3,417
1969,6,22,4,457
1969,6,22,5,502
1969,6,22,6,566
1969,6,22,7,624
1969,6,22,8,716
1969,6,22,9,752
1969,6,22,10,740
1969,6,22,11,694
1969,6,22,12,646
1969,6,22,13,609
1969,6,22,14,557
1969,6,22,15,609
1969,6,22,16,670
1969,6,22,17,731
1969,6,22,18,792
1969,6,22,19,847
1969,6,22,20,883
1969,6,22,21,890
1969,6,22,22,853
1969,6,22,23,777
1969,6,23,0,679
1969,6,23,1,585
1969,6,23,2,496
1969,6,23,3,451
1969,6,23,4,457
1969,6,23,5,487
1969,6,23,6,533
1969,6,23,7,582
1969,6,23,8,658
1969,6,23,9,725
1969,6,23,10,774
1969,6,23,11,777
1969,6,23,12,758
1969,6,23,13,722
1969,6,23,14,688
1969,6,23,15,624
1969,6,23,16,621
1969,6,23,17,682
1969,6,23,18,868
1969,6,23,19,762
1969,6,23,20,789
1969,6,23,21,819
1969,6,23,22,813
1969,6,23,23,792
1969,6,24,0,719
1969,6,24,1,640
1969,6,24,2,560
1969,6,24,3,505
1969,6,24,4,454
1969,6,24,5,521
1969,6,24,6,603
1969,6,24,7,536
1969,6,24,8,655
1969,6,24,9,746
1969,6,24,10,841
1969,6,24,11,896
1969,6,24,12,896
1969,6,24,13,911
1969,6,24,14,886
1969,6,24,15,810
1969,6,24,16,731
1969,6,24,17,691
1969,6,24,18,838
1969,6,24,19,661
1969,6,24,20,640
1969,6,24,21,667
1969,6,24,22,725
1969,6,24,23,710
1969,6,25,0,694
1969,6,25,1,643
1969,6,25,2,618
1969,6,25,3,569
1969,6,25,4,505
1969,6,25,5,466
1969,6,25,6,499
1969,6,25,7,560
1969,6,25,8,536
1969,6,25,9,643
1969,6,25,10,792
1969,6,25,11,908
1969,6,25,12,981
1969,6,25,13,1011
1969,6,25,14,984
1969,6,25,15,932
1969,6,25,16,847
1969,6,25,17,701
1969,6,25,18,600
1969,6,25,19,725
1969,6,25,20,515
1969,6,25,21,487
1969,6,25,22,518
1969,6,25,23,603
1969,6,26,0,646
1969,6,26,1,661
1969,6,26,2,652
1969,6,26,3,621
1969,6,26,4,573
1969,6,26,5,487
1969,6,26,6,481
1969,6,26,7,515
1969,6,26,8,518
1969,6,26,9,576
1969,6,26,10,707
1969,6,26,11,877
1969,6,26,12,1027
1969,6,26,13,1115
1969,6,26,14,1152
1969,6,26,15,1106
1969,6,26,16,1005
1969,6,26,17,862
1969,6,26,18,704
1969,6,26,19,560
1969,6,26,20,539
1969,6,26,21,402
1969,6,26,22,377
1969,6,26,23,438
1969,6,27,0,527
1969,6,27,1,633
1969,6,27,2,673
1969,6,27,3,673
1969,6,27,4,633
1969,6,27,5,557
1969,6,27,6,493
1969,6,27,7,445
1969,6,27,8,466
1969,6,27,9,524
1969,6,27,10,615
1969,6,27,11,783
1969,6,27,12,957
1969,6,27,13,1124
1969,6,27,14,1234
1969,6,27,15,1237
1969,6,27,16,1170
1969,6,27,17,1021
1969,6,27,18,816
1969,6,27,19,591
1969,6,27,20,414
1969,6,27,21,359
1969,6,27,22,268
1969,6,27,23,249
1969,6,28,0,344
1969,6,28,1,484
1969,6,28,2,597
1969,6,28,3,679
1969,6,28,4,655
1969,6,28,5,640
1969,6,28,6,542
1969,6,28,7,454
1969,6,28,8,454
1969,6,28,9,432
1969,6,28,10,478
1969,6,28,11,621
1969,6,28,12,804
1969,6,28,13,1045
1969,6,28,14,1237
1969,6,28,15,1322
1969,6,28,16,1341
1969,6,28,17,1264
1969,6,28,18,1051
1969,6,28,19,774
1969,6,28,20,515
1969,6,28,21,365
1969,6,28,22,268
1969,6,28,23,164
1969,6,29,0,210
1969,6,29,1,359
1969,6,29,2,521
1969,6,29,3,618
1969,6,29,4,664
1969,6,29,5,673
1969,6,29,6,624
1969,6,29,7,530
1969,6,29,8,435
1969,6,29,9,390
1969,6,29,10,411
1969,6,29,11,478
1969,6,29,12,637
1969,6,29,13,883
1969,6,29,14,1127
1969,6,29,15,1316
1969,6,29,16,1405
1969,6,29,17,1380
1969,6,29,18,1255
1969,6,29,19,1027
1969,6,29,20,713
1969,6,29,21,457
1969,6,29,22,274
1969,6,29,23,155
1969,6,30,0,100
1969,6,30,1,207
1969,6,30,2,356
1969,6,30,3,512
1969,6,30,4,646
1969,6,30,5,679
1969,6,30,6,664
1969,6,30,7,591
1969,6,30,8,481
1969,6,30,9,374
1969,6,30,10,362
1969,6,30,11,423
1969,6,30,12,490
1969,6,30,13,673
1969,6,30,14,932
1969,6,30,15,1170
1969,6,30,16,1356
1969,6,30,17,1426
1969,6,30,18,1377
1969,6,30,19,1219
1969,6,30,20,957
1969,6,30,21,633
1969,6,30,22,377
1969,6,30,23,219
1969,7,1,0,128
1969,7,1,1,118
1969,7,1,2,243
1969,7,1,3,408
1969,7,1,4,551
1969,7,1,5,658
1969,7,1,6,688
1969,7,1,7,661
1969,7,1,8,579
1969,7,1,9,426
1969,7,1,10,329
1969,7,1,11,316
1969,7,1,12,368
1969,7,1,13,509
1969,7,1,14,719
1969,7,1,15,969
1969,7,1,16,1213
1969,7,1,17,1359
1969,7,1,18,1389
1969,7,1,19,1310
1969,7,1,20,1118
1969,7,1,21,868
1969,7,1,22,560
1969,7,1,23,313
1969,7,2,0,207
1969,7,2,1,167
1969,7,2,2,225
1969,7,2,3,332
1969,7,2,4,484
1969,7,2,5,633
1969,7,2,6,728
1969,7,2,7,716
1969,7,2,8,637
1969,7,2,9,545
1969,7,2,10,411
1969,7,2,11,335
1969,7,2,12,365
1969,7,2,13,463
1969,7,2,14,569
1969,7,2,15,789
1969,7,2,16,1045
1969,7,2,17,1243
1969,7,2,18,1338
1969,7,2,19,1298
1969,7,2,20,1176
1969,7,2,21,966
1969,7,2,22,722
1969,7,2,23,478
1969,7,3,0,298
1969,7,3,1,225
1969,7,3,2,237
1969,7,3,3,310
1969,7,3,4,435
1969,7,3,5,597
1969,7,3,6,697
1969,7,3,7,740
1969,7,3,8,716
1969,7,3,9,637
1969,7,3,10,515
1969,7,3,11,438
1969,7,3,12,362
1969,7,3,13,396
1969,7,3,14,530
1969,7,3,15,661
1969,7,3,16,856
1969,7,3,17,1063
1969,7,3,18,1194
1969,7,3,19,1222
1969,7,3,20,1164
1969,7,3,21,1033
1969,7,3,22,844
1969,7,3,23,630
1969,7,4,0,408
1969,7,4,1,307
1969,7,4,2,307
1969,7,4,3,326
1969,7,4,4,429
1969,7,4,5,569
1969,7,4,6,694
1969,7,4,7,768
1969,7,4,8,780
1969,7,4,9,731
1969,7,4,10,673
1969,7,4,11,612
1969,7,4,12,451
1969,7,4,13,451
1969,7,4,14,548
1969,7,4,15,630
1969,7,4,16,716
1969,7,4,17,880
1969,7,4,18,1039
1969,7,4,19,1121
1969,7,4,20,1097
1969,7,4,21,1027
1969,7,4,22,890
1969,7,4,23,731
1969,7,5,0,536
1969,7,5,1,390
1969,7,5,2,356
1969,7,5,3,374
1969,7,5,4,377
1969,7,5,5,451
1969,7,5,6,621
1969,7,5,7,740
1969,7,5,8,792
1969,7,5,9,789
1969,7,5,10,740
1969,7,5,11,697
1969,7,5,12,627
1969,7,5,13,542
1969,7,5,14,573
1969,7,5,15,618
1969,7,5,16,649
1969,7,5,17,734
1969,7,5,18,841
1969,7,5,19,950
1969,7,5,20,960
1969,7,5,21,917
1969,7,5,22,844
1969,7,5,23,710
1969,7,6,0,563
1969,7,6,1,460
1969,7,6,2,399
1969,7,6,3,381
1969,7,6,4,448
1969,7,6,5,521
1969,7,6,6,576
1969,7,6,7,679
1969,7,6,8,783
1969,7,6,9,819
1969,7,6,10,810
1969,7,6,11,783
1969,7,6,12,728
1969,7,6,13,685
1969,7,6,14,637
1969,7,6,15,633
1969,7,6,16,670
1969,7,6,17,734
1969,7,6,18,774
1969,7,6,19,807
1969,7,6,20,810
1969,7,6,21,819
1969,7,6,22,795
1969,7,6,23,704
1969,7,7,0,621
1969,7,7,1,530
1969,7,7,2,487
1969,7,7,3,445
1969,7,7,4,475
1969,7,7,5,551
1969,7,7,6,582
1969,7,7,7,633
1969,7,7,8,758
1969,7,7,9,841
1969,7,7,10,850
1969,7,7,11,880
1969,7,7,12,859
1969,7,7,13,844
1969,7,7,14,792
1969,7,7,15,719
1969,7,7,16,713
1969,7,7,17,758
1969,7,7,18,722
1969,7,7,19,661
1969,7,7,20,667
1969,7,7,21,701
1969,7,7,22,679
1969,7,7,23,640
1969,7,8,0,594
1969,7,8,1,551
1969,7,8,2,512
1969,7,8,3,490
1969,7,8,4,469
1969,7,8,5,515
1969,7,8,6,609
1969,7,8,7,603
1969,7,8,8,670
1969,7,8,9,786